Hourly Data Report for April 26, 2020

TORONTO CITY
ONTARIO
Current Station Operator: ECCC - MSC

43°40'00.000" N
79°24'00.000" W
112.50 m
6158355
71508
XTO

Download Data

Hourly Data (April 2020)
Hourly Data Report for April 26, 2020
TIME
LST
Temp Definition
°C
Dew Point Definition
°C
Rel Hum Definition
%
Precip. Amount Definition
mm

Wind Dir Definition
10's deg

Wind Spd Definition
km/h
Visibility Definition
km
Stn Press Definition
kPa
Hmdx Definition


Wind Chill Definition


Weather Definition


00:00 11.1 -10.7 21 0.0       100.19     LegendNANA
01:00 11.4 -9.4 22 0.0       100.17     LegendNANA
02:00 11.7 -9.8 21 0.0       100.11     LegendNANA
03:00 11.3 -9.3 23 0.0       100.02     LegendNANA
04:00 11.1 -9.3 23 0.0       100.01     LegendNANA
05:00 10.9 -8.8 24 0.0       100.02     LegendNANA
06:00 10.8 -8.7 25 0.0       100.05     LegendNANA
07:00 10.1 -6.6 30 0.0       100.12     LegendNANA
08:00 9.1 -3.9 40 0.0       100.16     LegendNANA
09:00 9.6 -4.2 38 0.0       100.17     LegendNANA
10:00 10.7 -4.7 34 0.0       100.12     LegendNANA
11:00 9.0 0.1 53 0.0       100.17     LegendNANA
12:00 8.7 3.8 71 0.0       100.17     LegendNANA
13:00 8.1 3.4 72 0.0       100.19     LegendNANA
14:00 8.4 3.1 69 0.0       100.18     LegendNANA
15:00 8.6 2.7 66 0.0       100.16     LegendNANA
16:00 8.5 3.8 72 0.0       100.16     LegendNANA
17:00 9.0 2.7 64 0.0       100.23     LegendNANA
18:00 8.1 2.7 69 0.0       100.32     LegendNANA
19:00 7.1 2.9 75 0.0       100.40     LegendNANA
20:00 6.9 3.0 76 0.2       100.46     LegendNANA
21:00 7.0 2.6 74 0.0       100.49     LegendNANA
22:00 7.6 1.6 66 0.0       100.47     LegendNANA
23:00 8.8 -0.4 52 0.0       100.46     LegendNANA

Notes on Data Quality.

Legend

  • E = Estimated
  • M = Missing
  • NA = Not Available*
  • [empty] = Indicates an unobserved value
Date modified: